When you browse on this site, cookies collect data to enhance your experience and personalize the content and advertising you see.
Visit our Privacy Policy to learn more. By continuing to use the site, you agree to this use of cookies and data.
  • En España
  • Lista de países
  • Para 7 días
  • Temperatura del agua
  • Mapa Satelital
  • El tiempo en el mapa
  • Informadores
  • user-avatar
    Iniciar sesión

    Tiempo cada hora Maksym

    Hoy, 19 Mayo, Domingo

    Tiempo Temperatura Precipitaciones Viento Presión Humedad
    00:00 +14°C° 0 mm 4 mps 751 mmHg 81%
    01:00 +14°C° 0 mm 4 mps 751 mmHg 81%
    02:00 +13°C° 0 mm 3 mps 751 mmHg 79%
    03:00 +12°C° 0 mm 3 mps 751 mmHg 79%
    04:00 +12°C° 0 mm 3 mps 751 mmHg 78%
    05:00 +12°C° 0 mm 3 mps 751 mmHg 78%
    06:00 +14°C° 0 mm 4 mps 751 mmHg 74%
    07:00 +17°C° 0 mm 4 mps 751 mmHg 71%
    08:00 +18°C° 0 mm 4 mps 751 mmHg 67%
    09:00 +20°C° 0 mm 4 mps 751 mmHg 64%
    10:00 +22°C° 0 mm 4 mps 751 mmHg 60%
    11:00 +23°C° 0 mm 5 mps 751 mmHg 57%
    12:00 +25°C° 0 mm 5 mps 751 mmHg 55%
    13:00 +25°C° 0 mm 5 mps 751 mmHg 53%
    14:00 +25°C° 0 mm 5 mps 751 mmHg 51%
    15:00 +25°C° 0 mm 5 mps 751 mmHg 53%
    16:00 +25°C° 0 mm 5 mps 751 mmHg 56%
    17:00 +23°C° 0 mm 4 mps 751 mmHg 59%
    18:00 +22°C° 0 mm 4 mps 751 mmHg 66%
    19:00 +20°C° 0 mm 4 mps 751 mmHg 73%
    20:00 +18°C° 0 mm 3 mps 752 mmHg 80%
    21:00 +18°C° 0 mm 3 mps 752 mmHg 80%
    22:00 +17°C° 0 mm 4 mps 752 mmHg 81%
    23:00 +17°C° 0 mm 4 mps 752 mmHg 82%

    Mañana, 20 Mayo, Lunes

    Tiempo Temperatura Precipitaciones Viento Presión Humedad
    00:00 +15°C° 0 mm 4 mps 752 mmHg 81%
    01:00 +15°C° 0 mm 4 mps 752 mmHg 79%
    02:00 +15°C° 0 mm 4 mps 753 mmHg 78%
    03:00 +14°C° 0 mm 4 mps 753 mmHg 78%
    04:00 +14°C° 0 mm 5 mps 753 mmHg 79%
    05:00 +14°C° 0 mm 5 mps 753 mmHg 79%
    06:00 +15°C° 0 mm 5 mps 753 mmHg 75%
    07:00 +17°C° 0 mm 6 mps 753 mmHg 71%
    08:00 +19°C° 0 mm 6 mps 754 mmHg 67%
    09:00 +21°C° 0 mm 6 mps 754 mmHg 63%
    10:00 +22°C° 0 mm 6 mps 754 mmHg 60%
    11:00 +23°C° 0 mm 7 mps 754 mmHg 57%
    12:00 +24°C° 0 mm 7 mps 753 mmHg 56%
    13:00 +24°C° 0 mm 7 mps 753 mmHg 55%
    14:00 +24°C° 0 mm 7 mps 753 mmHg 55%
    15:00 +24°C° 0 mm 6 mps 753 mmHg 57%
    16:00 +24°C° 0 mm 6 mps 753 mmHg 59%
    17:00 +23°C° 0 mm 6 mps 752 mmHg 62%
    18:00 +22°C° 0 mm 6 mps 752 mmHg 66%
    19:00 +21°C° 0 mm 5 mps 752 mmHg 70%
    20:00 +19°C° 0 mm 5 mps 752 mmHg 74%
    21:00 +19°C° 0 mm 6 mps 752 mmHg 72%
    22:00 +19°C° 0 mm 6 mps 752 mmHg 70%
    23:00 +19°C° 0 mm 6 mps 752 mmHg 68%

    Pasado mañana, 21 Mayo, Martes

    Tiempo Temperatura Precipitaciones Viento Presión Humedad
    00:00 +19°C° 0.2 mm 6 mps 752 mmHg 69%
    01:00 +17°C° 0.2 mm 6 mps 752 mmHg 69%
    02:00 +17°C° 0.2 mm 6 mps 752 mmHg 70%
    03:00 +17°C° 0 mm 6 mps 752 mmHg 72%
    04:00 +16°C° 0 mm 6 mps 752 mmHg 73%
    05:00 +16°C° 0 mm 5 mps 752 mmHg 75%
    06:00 +17°C° 0 mm 6 mps 752 mmHg 73%
    07:00 +19°C° 0 mm 6 mps 752 mmHg 71%
    08:00 +20°C° 0 mm 7 mps 752 mmHg 69%
    09:00 +21°C° 0 mm 7 mps 752 mmHg 67%
    10:00 +22°C° 0 mm 7 mps 752 mmHg 65%
    11:00 +23°C° 0 mm 8 mps 751 mmHg 64%
    12:00 +23°C° 0.5 mm 8 mps 751 mmHg 64%
    13:00 +23°C° 0.5 mm 8 mps 751 mmHg 65%
    14:00 +24°C° 0.5 mm 8 mps 750 mmHg 66%
    15:00 +23°C° 0.2 mm 7 mps 750 mmHg 68%
    16:00 +23°C° 0.2 mm 7 mps 750 mmHg 70%
    17:00 +22°C° 0.2 mm 6 mps 749 mmHg 72%
    18:00 +21°C° 0.9 mm 5 mps 749 mmHg 76%
    19:00 +20°C° 0.9 mm 5 mps 749 mmHg 81%
    20:00 +19°C° 0.9 mm 4 mps 749 mmHg 85%
    21:00 +19°C° 0 mm 4 mps 749 mmHg 86%
    22:00 +18°C° 0 mm 4 mps 749 mmHg 88%
    23:00 +18°C° 0 mm 4 mps 749 mmHg 89%

    22 Mayo, Miércoles

    Tiempo Temperatura Precipitaciones Viento Presión Humedad
    00:00 +17°C° 0 mm 4 mps 749 mmHg 90%
    01:00 +17°C° 0 mm 4 mps 749 mmHg 91%
    02:00 +17°C° 0 mm 3 mps 749 mmHg 93%
    03:00 +16°C° 0 mm 3 mps 748 mmHg 93%
    04:00 +16°C° 0 mm 3 mps 748 mmHg 94%
    05:00 +16°C° 0 mm 3 mps 748 mmHg 94%
    06:00 +17°C° 0 mm 3 mps 748 mmHg 91%
    07:00 +18°C° 0 mm 4 mps 748 mmHg 87%
    08:00 +19°C° 0 mm 4 mps 748 mmHg 84%
    09:00 +19°C° 0 mm 4 mps 748 mmHg 79%
    10:00 +20°C° 0 mm 4 mps 748 mmHg 74%
    11:00 +21°C° 0 mm 4 mps 748 mmHg 69%
    12:00 +21°C° 0.1 mm 4 mps 748 mmHg 67%
    13:00 +22°C° 0.1 mm 4 mps 747 mmHg 65%
    14:00 +22°C° 0.1 mm 4 mps 747 mmHg 63%
    15:00 +21°C° 0.5 mm 3 mps 747 mmHg 70%
    16:00 +20°C° 0.5 mm 3 mps 746 mmHg 77%
    17:00 +19°C° 0.5 mm 3 mps 746 mmHg 83%
    18:00 +18°C° 0.6 mm 2 mps 746 mmHg 86%
    19:00 +18°C° 0.6 mm 2 mps 746 mmHg 88%
    20:00 +18°C° 0.6 mm 1 mps 746 mmHg 90%
    21:00 +16°C° 0 mm 1 mps 745 mmHg 92%
    22:00 +16°C° 0 mm 1 mps 745 mmHg 93%
    23:00 +15°C° 0 mm 2 mps 745 mmHg 94%

    23 Mayo, Jueves

    Tiempo Temperatura Precipitaciones Viento Presión Humedad
    00:00 +15°C° 0 mm 1 mps 745 mmHg 95%
    01:00 +15°C° 0 mm 1 mps 745 mmHg 96%
    02:00 +15°C° 0 mm 1 mps 745 mmHg 96%
    03:00 +15°C° 0 mm 1 mps 745 mmHg 96%
    04:00 +15°C° 0 mm 1 mps 744 mmHg 97%
    05:00 +15°C° 0 mm 1 mps 744 mmHg 97%
    06:00 +16°C° 0.1 mm 2 mps 744 mmHg 94%
    07:00 +17°C° 0.1 mm 2 mps 744 mmHg 91%
    08:00 +18°C° 0.1 mm 2 mps 744 mmHg 88%
    09:00 +18°C° 0.6 mm 3 mps 744 mmHg 86%
    10:00 +19°C° 0.6 mm 4 mps 744 mmHg 84%
    11:00 +19°C° 0.6 mm 6 mps 744 mmHg 82%
    12:00 +19°C° 0.3 mm 6 mps 743 mmHg 82%
    13:00 +19°C° 0.3 mm 6 mps 743 mmHg 81%
    14:00 +19°C° 0.3 mm 6 mps 743 mmHg 80%
    15:00 +19°C° 0.3 mm 6 mps 743 mmHg 80%
    16:00 +20°C° 0.3 mm 5 mps 743 mmHg 80%
    17:00 +20°C° 0.3 mm 5 mps 743 mmHg 80%
    18:00 +19°C° 0.4 mm 5 mps 743 mmHg 83%
    19:00 +17°C° 0.4 mm 5 mps 743 mmHg 86%
    20:00 +16°C° 0.4 mm 5 mps 743 mmHg 90%
    21:00 +16°C° 0.5 mm 5 mps 743 mmHg 91%
    22:00 +15°C° 0.5 mm 5 mps 743 mmHg 92%
    23:00 +15°C° 0.5 mm 5 mps 743 mmHg 93%

    24 Mayo, Viernes

    Tiempo Temperatura Precipitaciones Viento Presión Humedad
    00:00 +15°C° 0.2 mm 5 mps 743 mmHg 94%
    01:00 +15°C° 0.2 mm 5 mps 743 mmHg 94%
    02:00 +15°C° 0.2 mm 5 mps 743 mmHg 94%
    03:00 +15°C° 0.1 mm 5 mps 743 mmHg 94%
    04:00 +15°C° 0.1 mm 5 mps 743 mmHg 94%
    05:00 +15°C° 0.1 mm 5 mps 743 mmHg 94%
    06:00 +15°C° 0.1 mm 5 mps 743 mmHg 93%
    07:00 +15°C° 0.1 mm 5 mps 744 mmHg 92%
    08:00 +15°C° 0.1 mm 5 mps 744 mmHg 92%
    09:00 +14°C° 0.1 mm 5 mps 744 mmHg 91%
    10:00 +14°C° 0.1 mm 5 mps 744 mmHg 90%
    11:00 +14°C° 0.1 mm 5 mps 744 mmHg 90%
    12:00 +15°C° 0.2 mm 5 mps 744 mmHg 88%
    13:00 +15°C° 0.2 mm 5 mps 745 mmHg 86%
    14:00 +16°C° 0.2 mm 5 mps 745 mmHg 85%
    15:00 +15°C° 0.4 mm 4 mps 745 mmHg 85%
    16:00 +15°C° 0.4 mm 4 mps 745 mmHg 85%
    17:00 +16°C° 0.4 mm 3 mps 745 mmHg 86%
    18:00 +14°C° 0.1 mm 3 mps 745 mmHg 87%
    19:00 +14°C° 0.1 mm 3 mps 745 mmHg 89%
    20:00 +14°C° 0.1 mm 2 mps 745 mmHg 90%
    21:00 +14°C° 0.1 mm 2 mps 745 mmHg 90%
    22:00 +13°C° 0.1 mm 2 mps 745 mmHg 91%
    23:00 +13°C° 0.1 mm 2 mps 745 mmHg 91%
    Mostrar más